Weather History for KBDR - January, 2013

Change the Weather History Date:

Wednesday, January 23, 2013

  Actual Average Record
Temperature  
Mean Temperature 16 °F 30 °F  
Max Temperature 20 °F 37 °F 56 °F (1992)
Min Temperature 11 °F 23 °F 0 °F (1976)
Degree Days  
Heating Degree Days 49 35  
Month to date heating degree days 703 801  
Since 1 July heating degree days 2399 2694  
Cooling Degree Days 0 0  
Month to date cooling degree days 0 0  
Year to date cooling degree days 0 0  
Moisture  
Dew Point -6 °F    
Average Humidity 43    
Maximum Humidity 58    
Minimum Humidity 28    
Precipitation  
Precipitation 0.00 in 0.09 in 2.48 in (1998)
Month to date precipitation 1.15 2.35  
Year to date precipitation 1.15 2.35  
Snow  
Snow 0.00 in 0.20 in 7.10 in (1965)
Month to date snowfall 3.5 5.8  
Since 1 July snowfall 19.7 11.6  
Snow Depth 0.00 in    
Sea Level Pressure  
Sea Level Pressure 30.18 in    
Wind  
Wind Speed 11 mph (WNW)    
Max Wind Speed 22 mph    
Max Gust Speed 29 mph    
Visibility 10 miles    
Events      
T = Trace of Precipitation, MM = Missing Value Source: NWS Daily Summary

Daily Weather History Graph

Daily Weather History Graph

Search for Another Location

Airport or City:

Trip Planner

Search our weather history database for the weather conditions in past years. The results will help you decide how hot, cold, wet, or windy it might be!

Date:

Astronomy

Jan. 23, 2013 Rise Set
Actual Time 7:10 AM EST 4:58 PM EST
Civil Twilight 6:41 AM EST 5:28 PM EST
Nautical Twilight 6:07 AM EST 6:01 PM EST
Astronomical Twilight 5:34 AM EST 6:34 PM EST
Moon 2:06 PM EST (1/23) 4:20 AM EST (1/23)
Length of Visible Light 10h 47m
Length of Day
9h 47m
Waxing Gibbous, 89% of the Moon is Illuminated
Jan 23
Waxing Gibbous
Jan 26
Full
Feb 3
Last Quarter
Feb 10
New
Feb 17
First Quarter

Hourly Weather History & Observations

Time (EST) Temp. Windchill Dew Point Humidity Pressure Visibility Wind Dir Wind Speed Gust Speed Precip Events Conditions
12:52 AM 12.9 °F -0.9 °F -8.0 °F 39% 30.16 in 10.0 mi West 11.5 mph 18.4 mph N/A   Clear
1:52 AM 12.0 °F -4.0 °F -7.1 °F 42% 30.17 in 10.0 mi WNW 15.0 mph 21.9 mph N/A   Clear
2:52 AM 12.0 °F -3.4 °F -6.0 °F 44% 30.19 in 10.0 mi West 13.8 mph 20.7 mph N/A   Clear
3:52 AM 10.9 °F -1.8 °F -4.0 °F 51% 30.19 in 10.0 mi West 9.2 mph 18.4 mph N/A   Clear
4:52 AM 10.9 °F -2.6 °F -4.0 °F 51% 30.19 in 10.0 mi West 10.4 mph 19.6 mph N/A   Clear
5:52 AM 10.9 °F -3.4 °F -4.0 °F 51% 30.19 in 10.0 mi West 11.5 mph - N/A   Clear
6:52 AM 10.9 °F -3.4 °F -4.0 °F 51% 30.21 in 10.0 mi WNW 11.5 mph - N/A   Clear
7:52 AM 10.9 °F -4.1 °F -2.9 °F 54% 30.21 in 10.0 mi West 12.7 mph 21.9 mph N/A   Clear
8:52 AM 12.9 °F -2.2 °F -5.1 °F 45% 30.22 in 10.0 mi WNW 13.8 mph 20.7 mph N/A   Clear
9:52 AM 15.1 °F -0.6 °F -7.1 °F 37% 30.23 in 10.0 mi WNW 16.1 mph 21.9 mph N/A   Clear
10:52 AM 17.1 °F 1.0 °F -6.0 °F 36% 30.21 in 10.0 mi West 18.4 mph 27.6 mph N/A   Partly Cloudy
11:52 AM 19.0 °F 6.1 °F -5.1 °F 34% 30.18 in 10.0 mi WNW 12.7 mph - N/A   Partly Cloudy
12:52 PM 19.0 °F 5.0 °F -9.0 °F 29% 30.15 in 10.0 mi NW 15.0 mph 23.0 mph N/A   Clear
1:52 PM 19.0 °F 4.0 °F -7.1 °F 31% 30.14 in 10.0 mi WNW 17.3 mph - N/A   Partly Cloudy
2:52 PM 19.0 °F 6.8 °F -7.1 °F 31% 30.14 in 10.0 mi NW 11.5 mph 20.7 mph N/A   Partly Cloudy
3:52 PM 18.0 °F 3.6 °F -8.0 °F 31% 30.15 in 10.0 mi NW 15.0 mph 21.9 mph N/A   Scattered Clouds
4:52 PM 18.0 °F 5.4 °F -8.0 °F 31% 30.16 in 10.0 mi NW 11.5 mph - N/A   Overcast
5:52 PM 17.1 °F 5.0 °F -6.0 °F 36% 30.17 in 10.0 mi WNW 10.4 mph - N/A   Clear
6:52 PM 16.0 °F 6.3 °F -5.1 °F 39% 30.19 in 10.0 mi West 6.9 mph - N/A   Clear
7:52 PM 16.0 °F 3.6 °F -5.1 °F 39% 30.19 in 10.0 mi WNW 10.4 mph - N/A   Clear
8:52 PM 12.9 °F 5.2 °F -4.0 °F 47% 30.19 in 10.0 mi WNW 4.6 mph - N/A   Clear
9:52 PM 12.9 °F 6.9 °F -2.9 °F 49% 30.19 in 10.0 mi NW 3.5 mph - N/A   Clear
10:52 PM 12.0 °F - -2.9 °F 51% 30.19 in 10.0 mi Calm Calm - N/A   Clear
11:52 PM 10.9 °F 1.4 °F -4.0 °F 51% 30.19 in 10.0 mi North 5.8 mph - N/A   Clear